TITAN 3C TRANSTAGE DEB, 27793

Orbit data source: Space-Track

TITAN 3C TRANSTAGE DEB, 27793 is space debris in HEO originally from a launch on Tue, 21 Dec 1965 UTC launched from the Air Force Eastern Test Range (AFETR). Debris objects in space refer to the collection of defunct objects orbiting the Earth. Examples of debris include non-operational satellites, rocket bodies, and fragments generated from explosions, collisions, or faulty payload assembly.

Loading next visibility...
Identifier
27793, 1965-108BH
Orbit
HEO
Country
Flag of USUS
Related business
Manufacturer
Unknown
Mission
Spacecraft
Bus & Motor
Unknown
Mass
Unknown
Launch date (UTC)
1965-12-21 (60 years ago)
Launch vehicle
Unknown
Launch site
Air Force Eastern Test Range (AFETR)
Object type
Payload
Rocket body
Debris
Shape & HBR
Unknown shape, 0.1 m
Radar Cross Section
Small (<0.1 m²)

Expand to show TLE details & history
Last TLE update: 3 days ago

TLE from 3 days ago
0 TITAN 3C TRANSTAGE DEB
1 27793U 65108BH  26131.15906079  .00002616  00000-0  99697-2 0  9995
2 27793  26.4604  70.5107 6517404  38.9423 353.2677  3.12939095135247
Epoch: 2026-05-11T03:49Z
TLE epoch observation values (Epoch: 2026-05-11T03:49:02.852Z)
Latitude
-0.00001°
Longitude
144.26429°
Altitude
1,160.393 km
Speed
9.25 km/s
True Right ascension
04h 41m 54s
True Declination
0° 00' 00"
Sunlit
Object was in daylight at epoch
Visualization orbit readout
Latitude
Unknown
Longitude
Unknown
Altitude
Unknown
Speed
Unknown
Apparent Right ascension
Unknown
Apparent Declination
Unknown
Sunlit
N/A
Visualization observer readout
Local Sidereal Time
04:51:44
Azimuth
Unknown
Elevation
Unknown
Doppler factor
Unknown
Orbital elements
Apogee altitude
26,239.287 km
Perigee altitude
499.052 km
Semi-major axis
19,747.307 km
Eccentricity
0.65174
Inclination
26.4604°
RAAN
70.5107°
Arg. of periapsis
38.9423°
True anomaly
320.5223°
Mean anomaly
353.2677°
Eccentric anomaly
341.28792°
Mean motion
0.78213 °/min
Orbital period
460.28 mins
BSTAR
0.0099697
Loading maneuver chart data...
Computing Atmospheric mass density...

Documentation

Showing up to 5 results
|